[[{"header":{"parameterUnit":"m.s-1","parameterCategory":1,"la1":30.2991,"la2":30.254,"lo1":-89.0895,"lo2":-89.0444,"dy":0.0017,"dx":0.0017,"nx":28,"ny":28,"refTime":"2024-04-29T21:00:00:Z","depth":0,"parameterNumber":2,"parameterNumberName":"U-component_of_WINDS"},"data":[0,0,0,0,0,0,0,0,0,0,0,0,0,0,0,0,0,0,0,0,0,0,0,0,0,0,0,0,0,0,0,0,0,0,0,0,0,0,0,0,0,0,0,0,0,0,0,0,0,0,0,0,0,0,0,0,0,0,-5.6324,-5.6325,0,-5.6484,-5.6486,-5.6488,-5.6499,-5.6498,-5.6496,-5.6494,-5.6657,-5.6663,-5.6669,0,0,0,0,0,0,0,0,0,0,0,0,0,-5.6028,-5.6033,-5.6324,-5.6326,-5.6328,-5.6484,-5.6486,-5.6488,-5.65,-5.6497,-5.6495,-5.6493,-5.6655,-5.6663,-5.667,0,0,0,0,0,0,0,0,0,0,0,0,0,-5.6169,-5.6035,-5.6323,-5.6352,-5.6356,-5.6483,-5.6486,-5.6489,-5.65,-5.6497,-5.6495,-5.6492,-5.6653,-5.6662,-5.6671,-5.6779,0,0,-5.6698,-5.6702,0,0,0,0,0,0,0,0,-5.6161,-5.618,-5.6346,-5.635,-5.6355,-5.6469,-5.6442,-5.6586,-5.6501,-5.6445,-5.6494,-5.6491,-5.6597,-5.661,-5.6646,-5.6787,-5.6794,-5.6699,-5.6704,-5.6708,-5.6711,0,0,0,0,0,0,0,-5.6151,-5.6173,-5.6387,-5.6348,-5.6354,-5.6357,-5.6374,-5.6469,-5.6534,-5.645,-5.6451,-5.647,-5.6599,-5.6637,-5.665,-5.6796,-5.6699,-5.6707,-5.6712,-5.6716,-5.7035,-5.7038,0,0,0,0,0,0,-5.6136,-5.6165,-5.6382,-5.6392,-5.625,-5.6365,-5.6384,-5.6435,-5.6533,-5.6545,-5.6472,-5.647,-5.6623,-5.664,-5.6656,-5.6789,-5.6708,-5.6717,-5.6722,-5.7032,-5.7036,-5.7039,0,0,0,0,0,0,-5.613,-5.6155,-5.6375,-5.6279,-5.6307,-5.6373,-5.643,-5.644,-5.6478,-5.655,-5.6561,-5.65,-5.6622,-5.6643,-5.6749,-5.6795,-5.6721,-5.6729,-5.7029,-5.7033,-5.7038,-5.7056,0,0,0,0,0,0,-5.6121,-5.6153,-5.6194,-5.628,-5.6312,-5.6465,-5.6433,-5.6445,-5.6494,-5.6492,-5.6579,-5.659,-5.6621,-5.6735,-5.6758,-5.6806,-5.6736,-5.7025,-5.7031,-5.7036,-5.7052,-5.7061,-5.7069,0,0,0,0,0,-5.611,-5.6193,-5.6196,-5.6223,-5.6366,-5.6468,-5.6487,-5.6521,-5.6497,-5.654,-5.6586,-5.6588,-5.6787,-5.6746,-5.6771,-5.6823,-5.7022,-5.7029,-5.7036,-5.7048,-5.7059,-5.7069,0,0,0,0,0,0,-5.6111,-5.6205,-5.6209,-5.6322,-5.6387,-5.647,-5.6524,-5.6532,-5.6604,-5.66,-5.664,-5.6659,-5.6763,-5.6804,-5.6757,-5.6934,-5.6902,-5.6914,-5.6902,-5.6914,-5.6922,-5.6909,-5.6743,0,0,0,0,0,-5.6124,-5.62,-5.6278,-5.637,-5.6402,-5.6458,-5.6504,-5.6525,-5.6593,-5.6621,-5.6675,-5.6741,-5.6819,-5.6869,-5.6945,-5.7059,-5.7078,-5.7107,-5.7116,-5.7122,-5.7132,-5.7195,-5.7209,-5.7062,-5.7062,-5.7062,0,0,-5.6152,-5.6213,-5.6258,-5.6371,-5.6424,-5.6501,-5.6481,-5.6563,-5.662,-5.6633,-5.6736,-5.6778,-5.6855,-5.6966,-5.7017,-5.7003,-5.7177,-5.7131,-5.7136,-5.7142,-5.7204,-5.7217,-5.723,-5.7067,-5.7066,-5.7065,0,0,-5.6242,-5.6296,-5.6378,-5.6432,-5.6513,-5.6549,-5.6569,-5.6652,-5.668,-5.6784,-5.6796,-5.6865,-5.6998,-5.7053,-5.7098,-5.7211,-5.7214,-5.7235,-5.7278,-5.7339,-5.7351,-5.7361,-5.74,-5.7414,-5.7244,-5.7244,-5.7244,0,-5.6266,-5.6382,-5.642,-5.6502,-5.6551,-5.6568,-5.6652,-5.6702,-5.6803,-5.6837,-5.682,-5.6988,-5.7041,-5.7164,-5.7192,-5.7229,-5.7252,-5.7223,-5.7346,-5.7357,-5.7367,-5.7405,-5.742,-5.7246,-5.7246,-5.7246,-5.7246,0,-5.6408,-5.6489,-5.6546,-5.6643,-5.67,-5.6782,-5.6832,-5.6885,-5.6902,-5.694,-5.7047,-5.7112,-5.72,-5.7232,-5.7249,-5.7358,-5.7347,-5.7338,-5.7306,-5.7382,-5.7418,-5.7433,-5.7249,-5.7248,-5.7247,-5.7247,0,0,-5.6499,-5.6618,-5.6638,-5.6682,-5.6774,-5.6837,-5.6921,-5.7008,-5.7052,-5.7123,-5.7193,-5.7307,-5.73,-5.7351,-5.7375,-5.7429,-5.7514,-5.7414,-5.7416,-5.7429,-5.7637,-5.7641,-5.7657,-5.7518,-5.7521,-5.7523,-5.763,0,-5.6598,-5.6747,-5.6784,-5.6911,-5.6986,-5.7004,-5.7078,-5.7142,-5.7181,-5.725,-5.7294,-5.7373,-5.7358,-5.7389,-5.7444,-5.7492,-5.7555,-5.7485,-5.7583,-5.7586,-5.7561,-5.7676,-5.7681,-5.7778,-5.7644,-5.7647,-5.7648,0,-5.6732,-5.6805,-5.694,-5.7022,-5.7055,-5.712,-5.7203,-5.727,-5.7343,-5.7368,-5.7427,-5.7446,-5.7534,-5.7501,-5.7623,-5.7574,-5.7617,-5.7647,-5.7652,-5.766,-5.762,-5.7686,-5.781,-5.7823,-5.7671,-5.7669,-5.7668,0,-5.6783,-5.6916,-5.7013,-5.7051,-5.715,-5.7195,-5.7238,-5.7309,-5.736,-5.7434,-5.7467,-5.755,-5.7594,-5.7659,-5.77,-5.7672,-5.7819,-5.7788,-5.7841,-5.784,-5.7869,-5.7866,-5.7999,-5.79,-5.79,-5.79,-5.79,0,-5.6888,-5.6969,-5.7038,-5.7097,-5.719,-5.7232,-5.7322,-5.7366,-5.7429,-5.7498,-5.752,-5.7584,-5.7636,-5.7708,-5.7741,-5.7837,-5.7858,-5.788,-5.7887,-5.7876,-5.7873,-5.7903,-5.7897,-5.7904,-5.7903,-5.7902,-5.7902,0,-5.6959,-5.7009,-5.7116,-5.7201,-5.7225,-5.7289,-5.7362,-5.7421,-5.7462,-5.7549,-5.7571,-5.7635,-5.7721,-5.777,-5.7877,-5.79,-5.8006,-5.8011,-5.7981,-5.7983,-5.8033,-5.8026,-5.8188,-5.8211,-5.8098,-5.8099,-5.81,0,-5.7021,-5.7085,-5.7177,-5.7225,-5.7268,-5.7345,-5.7397,-5.7442,-5.7495,-5.7585,-5.7633,-5.772,-5.7792,-5.7928,-5.7984,-5.8067,-5.8073,-5.8124,-5.8085,-5.8073,-5.8072,-5.8066,-5.8073,-5.8129,-5.813,-5.8131,-5.8132,0,-5.7126,-5.7148,-5.7222,-5.7305,-5.7366,-5.7434,-5.7501,-5.7539,-5.7595,-5.7654,-5.7742,-5.7798,-5.7908,-5.7994,-5.8082,-5.8127,-5.8139,-5.8144,-5.816,-5.8149,-5.8128,-5.8138,-5.7996,-5.8139,-5.8139,-5.8138,-5.8138,-5.8137,-5.7194,-5.7251,-5.7325,-5.7407,-5.7462,-5.7525,-5.7584,-5.7633,-5.7707,-5.78,-5.7823,-5.7915,-5.7988,-5.8107,-5.8155,-5.8228,-5.8219,-5.8243,-5.8248,-5.8253,-5.8254,-5.8118,-5.8244,-5.8244,-5.8244,-5.8244,-5.8244,0,-5.7299,-5.7348,-5.7423,-5.7516,-5.758,-5.7588,-5.7662,-5.7716,-5.7797,-5.7864,-5.7935,-5.8036,-5.812,-5.8184,-5.827,-5.8316,-5.8324,-5.8337,-5.8333,-5.8343,-5.8258,-5.8234,-5.8329,-5.8329,-5.8329,-5.8329,-5.8329,-5.8329,-5.7361,-5.7457,-5.7488,-5.7612,-5.7661,-5.7751,-5.7793,-5.7851,-5.7905,-5.8017,-5.8087,-5.8128,-5.8194,-5.8286,-5.8363,-5.838,-5.841,-5.8422,-5.8439,-5.8358,-5.8349,-5.834,-5.8318,-5.8429,-5.8429,-5.8518,-5.8519,-5.8519]},{"header":{"parameterUnit":"m.s-1","parameterCategory":1,"la1":30.2991,"la2":30.254,"lo1":-89.0895,"lo2":-89.0444,"dy":0.0017,"dx":0.0017,"nx":28,"ny":28,"refTime":"2024-04-29T21:00:00:Z","depth":0,"parameterNumber":3,"parameterNumberName":"V-component_of_WINDS"},"data":[0,0,0,0,0,0,0,0,0,0,0,0,0,0,0,0,0,0,0,0,0,0,0,0,0,0,0,0,0,0,0,0,0,0,0,0,0,0,0,0,0,0,0,0,0,0,0,0,0,0,0,0,0,0,0,0,0,0,4.6115,4.6115,0,4.6154,4.6154,4.6155,4.6161,4.6161,4.616,4.616,4.6195,4.6196,4.6198,0,0,0,0,0,0,0,0,0,0,0,0,0,4.6043,4.6045,4.6115,4.6116,4.6116,4.6154,4.6154,4.6155,4.6161,4.6161,4.616,4.616,4.6195,4.6196,4.6198,0,0,0,0,0,0,0,0,0,0,0,0,0,4.6077,4.6045,4.6115,4.6124,4.6125,4.6154,4.6154,4.6155,4.6161,4.6161,4.616,4.616,4.6194,4.6196,4.6198,4.6219,0,0,4.6204,4.6205,0,0,0,0,0,0,0,0,4.6076,4.608,4.6122,4.6123,4.6125,4.6152,4.6142,4.6176,4.6161,4.6147,4.616,4.6159,4.6181,4.6184,4.6192,4.6221,4.6222,4.6204,4.6205,4.6206,4.6206,0,0,0,0,0,0,0,4.6073,4.6078,4.613,4.6123,4.6124,4.6125,4.6129,4.6148,4.6166,4.6148,4.6149,4.6154,4.6182,4.619,4.6193,4.6223,4.6204,4.6205,4.6207,4.6207,4.6272,4.6272,0,0,0,0,0,0,4.607,4.6076,4.6129,4.6131,4.6099,4.6126,4.6131,4.6144,4.6166,4.6169,4.6154,4.6154,4.6187,4.6191,4.6194,4.6221,4.6206,4.6208,4.6209,4.6271,4.6272,4.6272,0,0,0,0,0,0,4.6068,4.6074,4.6127,4.6104,4.6111,4.6128,4.6142,4.6145,4.6153,4.617,4.6173,4.616,4.6187,4.6192,4.6213,4.6222,4.6208,4.621,4.627,4.6271,4.6272,4.6274,0,0,0,0,0,0,4.6066,4.6074,4.6083,4.6104,4.6112,4.6147,4.6143,4.6146,4.6157,4.6157,4.6177,4.6179,4.6187,4.6211,4.6215,4.6225,4.6212,4.627,4.6271,4.6272,4.6273,4.6275,4.6276,0,0,0,0,0,4.6064,4.608,4.6083,4.6089,4.6124,4.6147,4.6152,4.6161,4.6158,4.6166,4.6178,4.6179,4.6221,4.6213,4.6218,4.6228,4.6269,4.627,4.6272,4.6273,4.6275,4.6276,0,0,0,0,0,0,4.6057,4.6083,4.6086,4.6111,4.6127,4.6148,4.6159,4.6163,4.6179,4.6178,4.6189,4.6193,4.6214,4.6223,4.6214,4.625,4.6245,4.6247,4.6243,4.6245,4.6247,4.6244,4.6213,0,0,0,0,0,4.6059,4.6077,4.6099,4.6118,4.6126,4.6142,4.6152,4.6159,4.6175,4.6181,4.6194,4.6209,4.6226,4.6236,4.6252,4.6275,4.6279,4.6285,4.6286,4.6287,4.6289,4.6302,4.6305,4.6277,4.6277,4.6277,0,0,4.6062,4.6079,4.6089,4.6117,4.6131,4.6148,4.6147,4.6165,4.6179,4.6184,4.6206,4.6215,4.6233,4.6255,4.6266,4.6263,4.6298,4.6289,4.629,4.6291,4.6304,4.6306,4.6309,4.6278,4.6278,4.6277,0,0,4.6077,4.6091,4.611,4.6124,4.6145,4.6155,4.616,4.6181,4.6188,4.6211,4.6215,4.623,4.6259,4.6271,4.6281,4.6303,4.6304,4.6308,4.6315,4.6328,4.633,4.6332,4.634,4.6343,4.631,4.631,4.631,0,4.6077,4.6106,4.6118,4.6138,4.615,4.6158,4.6176,4.6188,4.6213,4.622,4.6218,4.6255,4.6267,4.6293,4.6298,4.6306,4.6311,4.6305,4.6329,4.6331,4.6333,4.6341,4.6344,4.631,4.631,4.631,4.631,0,4.6106,4.6125,4.6138,4.6163,4.6177,4.6195,4.621,4.6222,4.6228,4.6239,4.6262,4.6277,4.6297,4.6303,4.6308,4.633,4.6328,4.6327,4.6322,4.6336,4.6343,4.6346,4.631,4.631,4.631,4.631,0,0,4.6116,4.615,4.6154,4.6167,4.6191,4.6206,4.6225,4.6246,4.6257,4.6273,4.6289,4.6314,4.6314,4.6325,4.6332,4.6343,4.636,4.6341,4.6341,4.6344,4.6385,4.6385,4.6388,4.6361,4.6362,4.6362,4.6383,0,4.6134,4.617,4.6182,4.6211,4.623,4.6238,4.6255,4.6271,4.6282,4.6298,4.6309,4.6326,4.6325,4.6332,4.6344,4.6355,4.6368,4.6354,4.6375,4.6376,4.637,4.6392,4.6392,4.641,4.6386,4.6386,4.6387,0,4.6159,4.6178,4.621,4.6234,4.6242,4.6257,4.6278,4.6293,4.6312,4.6319,4.6333,4.6339,4.6358,4.6352,4.6379,4.6369,4.6379,4.6386,4.6387,4.6388,4.6381,4.6393,4.6417,4.6419,4.6391,4.6391,4.6391,0,4.6163,4.6197,4.6221,4.6231,4.6259,4.627,4.6281,4.63,4.6312,4.633,4.6338,4.6357,4.6368,4.6382,4.6393,4.6388,4.6419,4.6414,4.6424,4.6424,4.6429,4.6429,4.6454,4.6437,4.6437,4.6436,4.6436,0,4.6181,4.62,4.6224,4.6238,4.626,4.6274,4.6294,4.6306,4.6323,4.6339,4.6347,4.6362,4.6376,4.6392,4.6401,4.6421,4.6426,4.6431,4.6433,4.643,4.643,4.6436,4.6435,4.6437,4.6437,4.6437,4.6437,0,4.619,4.6206,4.6233,4.6258,4.6265,4.6279,4.63,4.6314,4.6326,4.6346,4.6352,4.637,4.6389,4.6402,4.6427,4.6432,4.6455,4.6457,4.6449,4.645,4.646,4.6458,4.6489,4.6494,4.6474,4.6474,4.6474,0,4.62,4.6215,4.6243,4.6256,4.6268,4.6288,4.6301,4.6316,4.6329,4.6352,4.6363,4.6384,4.6401,4.6432,4.6446,4.6465,4.6467,4.6477,4.647,4.6467,4.6467,4.6466,4.6467,4.6478,4.6478,4.6478,4.6478,0,4.6217,4.6225,4.6245,4.6268,4.6284,4.6303,4.6321,4.633,4.6348,4.6362,4.6383,4.6397,4.6423,4.6443,4.6464,4.6475,4.6479,4.648,4.6484,4.6481,4.6476,4.6478,4.6452,4.6479,4.6479,4.6479,4.6479,4.6479,4.6227,4.6241,4.6263,4.6285,4.6301,4.6318,4.6333,4.6348,4.6366,4.639,4.6397,4.6419,4.6438,4.6466,4.6478,4.6494,4.6493,4.6498,4.6499,4.65,4.65,4.6474,4.6498,4.6498,4.6498,4.6498,4.6498,0,4.6244,4.6259,4.628,4.6306,4.6323,4.6328,4.6349,4.6363,4.6383,4.6401,4.6418,4.6443,4.6463,4.6479,4.6499,4.651,4.6512,4.6514,4.6513,4.6516,4.65,4.6495,4.6512,4.6512,4.6512,4.6512,4.6512,4.6512,4.6255,4.628,4.6291,4.6323,4.6338,4.6361,4.6373,4.6388,4.6403,4.6431,4.6448,4.6459,4.6476,4.6498,4.6516,4.6521,4.6527,4.6529,4.6534,4.6518,4.6517,4.6515,4.6511,4.6531,4.6531,4.6548,4.6548,4.6549]}]]